Terminal Aerodrome Forecast
Issued by NWS

Home | Current Version | Previous Version | Text Only | Print | Product List | Glossary On
Versions: 1 2 3 4 5 6 7 8 9 10 11 12 13 14
000
FTUS43 KICT 270520
TAFCNU
TAF
KCNU 270520Z 2706/2806 33010KT P6SM SCT020
      TEMPO 2706/2708 BKN020
     FM271200 VRB04KT P6SM SCT050
     FM272000 17009KT P6SM SKC=

USA.gov is the U.S. government's official web portal to all federal, state and local government web resources and services.